Home > Time Zones > World Clock > Weather > Yemen > Aden > Past weeks

Flag for Yemen Weather past 2 weeks in Aden, Yemen

Now
84 °F

Passing clouds.


Feels Like: 84 °F
Forecast: 78 / 86 °F
Wind: 5 mph from Southeast

Location: Aden

Current Time: Oct 23, 2014 at 8:30:38 PM

Latest Report: Oct 23, 2014 at 8:00 PM


Visibility: N/A

Pressure: 29.95 "Hg

Humidity: 43%

Dew point: 59 °F

Location of AdenLocation

Historic Weather in Aden — Graph

°F

Aden temperature yesterday

Maximum temperature yesterday: 90 °F (at 3:00 PM)
Minimum temperature yesterday: 79 °F (at 4:00 AM)
Average temperature yesterday: 84 °F

Past Weeks' High & Low Weather Summary

 TemperatureHumidityPressure
High93 °F (Oct 10, 12:00 PM)58% (Oct 10, 6:00 AM)30.01 "Hg (Oct 10, 6:00 AM)
Low77 °F (Oct 19, 6:00 AM)22% (Oct 18, 12:00 PM)29.77 "Hg (Oct 10, 4:00 PM)
Average86 °F40%29.88 "Hg
* Reported Oct 8 7:00 PM — Oct 23 7:00 PM, Aden, Weather by CustomWeather, © 2014

Note: Actual official high and low records may vary slightly from our data, if they occured in-between our weather recording intervals... More about our weather records

Advertising

Aden weather history for previous 24 hours

 ConditionsComfort  
Time TempWeatherWind HumidityBarometerVisibility
7:00 PM
Oct 23
84 °FPassing clouds.5 mph40%29.92 "HgN/A
6:00 PM84 °FPassing clouds.7 mph40%29.89 "HgN/A
5:00 PM86 °FPassing clouds.9 mph40%29.89 "HgN/A
4:00 PM88 °FPleasantly warm.9 mph35%29.89 "HgN/A
3:00 PM88 °FPassing clouds.12 mph35%29.89 "HgN/A
2:00 PM88 °FScattered clouds.13 mph35%29.92 "HgN/A
1:00 PM88 °FPassing clouds.13 mph35%29.95 "HgN/A
12:00 PM88 °FPassing clouds.9 mph33%29.98 "HgN/A
11:00 AM88 °FScattered clouds.7 mph38%29.98 "HgN/A
10:00 AM88 °FPassing clouds.8 mph35%30.01 "HgN/A
9:00 AM86 °FScattered clouds.6 mph40%30.01 "HgN/A
8:00 AM82 °FScattered clouds.7 mph42%30.01 "HgN/A
7:00 AM79 °FScattered clouds.3 mph48%29.98 "HgN/A
6:00 AM77 °FScattered clouds.No wind51%29.95 "HgN/A
5:00 AM79 °FPassing clouds.6 mph48%29.95 "HgN/A
4:00 AM82 °FPassing clouds.10 mph40%29.92 "HgN/A
3:00 AM82 °FClear.9 mph37%29.92 "Hg10 mi
2:00 AM82 °FClear.10 mph40%29.92 "Hg10 mi
1:00 AM82 °FClear.13 mph40%29.92 "Hg10 mi
12:00 AM82 °FClear.14 mph37%29.95 "Hg10 mi
11:00 PM
Oct 22
82 °FClear.13 mph37%29.95 "Hg10 mi
10:00 PM82 °FClear.14 mph37%29.95 "Hg10 mi
9:00 PM84 °FPassing clouds.12 mph37%29.95 "HgN/A
8:00 PM84 °FPassing clouds.8 mph37%29.92 "HgN/A
Weather by CustomWeather, © 2014

See weather overviewHow to use our weather pages